Location: Unspecified
(42.3650°N, 71.1030°W)
Time: 13:24:13
(UTC+00:00)

Courier 1B - Pass Details

Date: 25 June 2024
Orbit: 962 x 1209 km, 28.3° (Epoch: 25 July)

Event Time Altitude Azimuth Distance (km) Brightness Sun altitude
Rises 05:59:41 0° 245° (WSW) 3,797 - -22.2°
Reaches altitude 10° 06:02:48 10° 234° (SW) 2,885 - -22.0°
Maximum altitude 06:08:29 26° 180° (S) 2,005 - -21.6°
Exits shadow 06:10:42 23° 153° (SSE) 2,192 9.0 -21.5°
Drops below altitude 10° 06:14:27 10° 127° (SE) 3,033 9.9 -21.2°
Sets 06:17:48 0° 115° (ESE) 4,030 10.7 -21.0°
